CAPE
0 1 0 2 1 1 2 2 1 1 2 2 2 4 8 8 7 0 7 5 9 7 7 9 1 7 0 0 0 2 4 1 23 63 99 62 18 17 10 0 4 16 11
0 0 0 0 0 1 1 0 1 0 0 1 3 2 3 4 4 7 8 9 9 9 7 0 7 8 9 10 8 2 7 6 5 1 0 0 0 0 0 3 4 8 3
0 0 1 0 0 0 1 0 1 0 1 0 1 1 1 3 3 3 2 4 4 3 2 2 1 2 5 1 3 7 4 2 1 3 4 1 0 2 1 1 5 3 0
0 0 0 0 0 1 1 1 1 0 0 1 0 0 0 1 2 3 2 2 1 1 1 1 0 1 4 2 4 3 1 0 0 1 4 1 3 1 0 4 0 0 1
0 0 0 0 1 2 0 0 0 0 0 0 1 0 1 1 2 0 0 0 1 1 1 1 0 0 1 1 2 0 0 0 0 2 1 6 6 7 5 8 9 6 0
0 0 0 0 0 0 0 0 0 0 0 0 0 0 0 1 2 1 0 0 0 1 1 0 0 0 0 0 1 1 2 0 0 0 4 3 4 5 5 7 8 7 0
0 0 0 0 0 0 0 0 0 0 0 0 0 0 0 0 0 1 1 0 0 0 0 0 0 0 0 0 0 0 0 2 1 2 2 2 4 2 3 5 4 7 6
0 0 0 0 0 0 0 0 0 0 0 0 0 0 0 1 0 0 0 0 0 0 0 1 0 0 1 0 0 0 0 2 0 0 0 0 0 0 1 2 2 2 2
0 0 0 0 0 0 0 0 0 0 0 0 1 0 0 0 1 0 0 0 1 0 0 0 0 0 1 0 1 0 0 1 1 1 0 0 0 0 2 1 2 3 1
0 0 0 0 0 0 0 0 0 0 0 0 0 0 0 0 0 0 0 0 0 0 0 0 0 0 1 1 1 0 1 1 0 0 0 0 0 0 0 1 0 3 5
0 0 0 0 0 0 0 0 0 0 0 0 0 0 0 0 0 0 0 0 0 0 0 0 0 0 0 0 0 0 0 0 0 0 0 0 0 0 0 0 0 0 2
0 0 0 0 0 0 0 0 0 0 0 0 0 0 0 0 0 0 0 0 0 0 0 0 0 0 0 0 0 0 0 0 0 0 0 1 1 0 0 0 0 0 0
0 0 0 0 0 0 0 0 0 0 0 0 0 0 0 0 0 0 0 0 0 0 0 0 0 0 0 0 0 0 0 0 0 0 0 0 1 0 0 0 0 0 0
0 0 0 0 0 0 0 0 0 0 0 0 0 0 0 0 0 0 0 0 0 0 0 0 0 0 0 0 0 0 0 0 0 0 0 0 0 0 0 0 0 0 0
0 0 0 0 0 0 0 0 0 0 0 0 0 0 0 0 0 0 0 0 0 0 0 0 0 0 0 0 0 0 0 0 0 0 0 0 0 0 0 0 0 0 0
0 0 0 0 0 0 0 0 0 0 3 2 1 0 0 0 0 0 0 0 0 0 0 0 0 0 0 0 0 0 0 0 0 0 0 0 0 0 0 0 0 0 1
0 0 0 0 0 0 0 0 0 0 0 0 0 0 0 0 0 0 0 0 0 0 0 0 0 0 0 0 0 0 0 0 0 0 0 0 0 0 0 0 0 0 0
0 0 0 0 0 0 0 0 0 0 0 0 0 0 0 0 0 0 0 0 0 0 0 0 0 0 0 0 0 0 0 0 0 0 0 0 0 0 0 0 0 0 0
0 0 0 0 0 0 0 0 0 0 0 0 0 0 0 0 0 0 0 0 0 0 0 0 0 0 0 0 0 0 0 0 0 0 0 0 0 0 0 0 0 0 0
0 0 0 0 0 0 0 0 0 0 0 0 0 0 0 0 0 0 0 0 0 0 0 0 0 0 0 0 0 0 0 0 0 0 0 0 0 0 0 0 0 0 0
0 0 0 0 0 0 0 0 0 0 0 0 0 0 0 0 0 0 0 0 0 0 0 0 0 0 0 0 0 0 0 0 0 0 0 0 0 0 0 0 0 0 0
0 0 0 0 0 0 0 0 0 0 0 0 0 0 0 0 0 0 0 0 0 0 0 0 0 0 0 0 0 0 0 0 0 0 0 0 0 0 0 0 0 0 0
0 0 0 0 0 0 0 0 0 0 0 0 0 0 0 0 0 0 0 0 0 0 0 0 0 0 0 0 0 0 0 0 0 0 0 0 0 0 0 0 0 0 0
0 0 0 0 0 0 0 0 0 0 0 0 0 0 0 0 0 0 0 0 0 0 0 0 0 0 0 0 0 0 0 0 0 0 0 0 0 0 0 0 0 0 0
0 0 0 0 0 0 0 0 0 0 0 0 0 0 0 0 0 0 0 0 0 0 0 0 0 0 0 0 0 0 0 0 0 0 0 0 0 0 0 0 0 0 0
0 0 0 0 0 0 0 0 0 0 0 0 0 0 0 0 0 0 0 0 0 0 0 0 0 0 0 0 0 0 0 0 0 0 0 0 0 0 0 0 0 0 0
CIN
-0 -0 -0 -0 -0 -0 -0 -0 -0 -0 -0 -0 -0 -0 -0 -0 -0 -0 -0 -0 -0 -0 -0 -0 -0 -0 -0 -0 -0 -0 -0 -0 -14 -79 -58 -83 -113 -65 -143 -32 -86 -110 -102
-0 -0 -0 -0 -0 -0 -0 -0 -0 -0 -0 -0 -0 -0 -0 -0 -0 -0 -0 -0 -0 -0 -0 -0 -0 -0 -0 -0 -0 -0 -0 -0 -0 -0 -0 -0 -0 -0 -0 -61 -48 -68 -88
-0 -0 -0 -0 -0 -0 -0 -0 -0 -0 -0 -0 -0 -0 -0 -0 -0 -0 -0 -0 -0 -0 -0 -0 -0 -0 -0 -0 -0 -0 -0 -0 -0 -0 -0 -0 -0 -0 -0 -0 -21 -52 -0
-0 -0 -0 -0 -0 -0 -0 -0 -0 -0 -0 -0 -0 -0 -0 -0 -0 -0 -0 -0 -0 -0 -0 -0 -0 -0 -0 -0 -0 -0 -0 -0 -0 -0 -0 -0 -0 -0 -0 -0 -0 -0 -0
-0 -0 -0 -0 -0 -0 -0 -0 -0 -0 -0 -0 -0 -0 -0 -0 -0 -0 -0 -0 -0 -0 -0 -0 -0 -0 -0 -0 -0 -0 -0 -0 -0 -0 -0 -0 -0 -0 -0 -0 -0 -0 -0
-0 -0 -0 -0 -0 -0 -0 -0 -0 -0 -0 -0 -0 -0 -0 -0 -0 -0 -0 -0 -0 -0 -0 -0 -0 -0 -0 -0 -0 -0 -0 -0 -0 -0 -0 -0 -0 -0 -0 -0 -0 -0 -0
-0 -0 -0 -0 -0 -0 -0 -0 -0 -0 -0 -0 -0 -0 -0 -0 -0 -0 -0 -0 -0 -0 -0 -0 -0 -0 -0 -0 -0 -0 -0 -0 -0 -0 -0 -0 -0 -0 -0 -0 -0 -0 -0
-0 -0 -0 -0 -0 -0 -0 -0 -0 -0 -0 -0 -0 -0 -0 -0 -0 -0 -0 -0 -0 -0 -0 -0 -0 -0 -1 -0 -0 -0 -0 -0 -0 -0 -0 -0 -0 -0 -0 -0 -0 -0 -0
-0 -0 -0 -0 -0 -0 -0 -0 -0 -0 -0 -0 -0 -0 -0 -1 -1 -0 -0 -0 -0 -0 -0 -0 -0 -0 -1 -0 -0 -0 -0 -0 -0 -0 -0 -0 -0 -0 -0 -0 -0 -0 -0
-0 -0 -0 -0 -0 -0 -0 -0 -0 -0 -0 -0 -0 -0 -0 -0 -1 -0 -0 -0 -0 -0 -0 -0 -0 -1 -0 -0 -0 -0 -0 -0 -0 -0 -0 -0 -0 -0 -0 -0 -0 -0 -0
-0 -0 -0 -0 -0 -0 -0 -0 -0 -0 -0 -0 -0 -0 -0 -0 -0 -0 -0 -0 -0 -0 -0 -0 -0 -0 -0 -0 -0 -0 -0 -0 -0 -0 -1 -0 -0 -0 -0 -0 -0 -0 -0
-0 -0 -0 -0 -0 -0 -0 -0 -0 -0 -0 -0 -0 -0 -0 -0 -0 -0 -0 -0 -0 -0 -0 -0 -0 -0 -0 -0 -0 -0 -0 -0 -0 -0 -0 -0 -0 -0 -0 -0 -0 -0 -0
-0 -0 -0 -0 -0 -0 -0 -0 -0 -0 -0 -0 -0 -0 -0 -0 -0 -0 -0 -0 -0 -0 -0 -0 -0 -0 -0 -0 -0 -0 -0 -0 -0 -0 -0 -0 -0 -0 -0 -0 -0 -0 -0
-0 -0 -0 -0 -0 -0 -0 -0 -0 -0 -0 -0 -0 -0 -0 -0 -0 -0 -0 -0 -0 -0 -0 -0 -0 -0 -0 -0 -0 -0 -0 -0 -0 -0 -0 -0 -0 -0 -0 -0 -0 -0 -0
-0 -0 -0 -0 -0 -0 -0 -0 -0 -0 -0 -0 -0 -0 -0 -0 -2 -0 -0 -0 -0 -0 -0 -0 -0 -0 -0 -0 -0 -0 -0 -0 -0 -0 -0 -0 -0 -0 -0 -0 -0 -0 -0
-0 -0 -0 -0 -0 -0 -0 -0 -0 -1 -0 -0 -0 -0 -0 -1 -0 -0 -0 -0 -0 -0 -0 -0 -0 -0 -0 -0 -0 -0 -0 -0 -0 -0 -0 -0 -0 -0 -0 -0 -0 -0 -0
-0 -0 -0 -0 -0 -0 -0 -0 -0 -0 -0 -0 -0 -0 -1 -1 -0 -0 -0 -0 -0 -0 -0 -0 -0 -0 -0 -0 -0 -0 -0 -0 -0 -0 -0 -0 -0 -0 -0 -0 -0 -0 -0
-0 -0 -0 -0 -0 -0 -0 -0 -0 -0 -0 -0 -0 -0 -0 -0 -0 -0 -0 -0 -0 -0 -0 -0 -0 -0 -0 -0 -0 -0 -0 -0 -0 -0 -0 -0 -0 -0 -0 -0 -0 -0 -0
-0 -0 -0 -0 -0 -0 -0 -0 -0 -0 -0 -0 -0 -0 -0 -0 -0 -0 -0 -0 -0 -0 -0 -0 -0 -0 -0 -0 -0 -0 -0 -0 -0 -0 -0 -0 -0 -0 -0 -0 -0 -0 -0
-0 -0 -0 -0 -0 -0 -0 -0 -0 -0 -0 -0 -0 -0 -0 -0 -0 -0 -0 -0 -0 -0 -0 -0 -0 -0 -0 -0 -0 -0 -0 -0 -0 -0 -0 -0 -0 -0 -0 -0 -0 -0 -0
-0 -0 -0 -0 -0 -0 -0 -0 -0 -0 -0 -0 -0 -0 -0 -0 -0 -0 -0 -0 -0 -0 -0 -0 -0 -0 -0 -0 -0 -0 -0 -0 -0 -0 -0 -0 -0 -0 -0 -0 -0 -0 -0
-0 -0 -0 -0 -0 -0 -0 -0 -0 -0 -0 -0 -0 -0 -0 -0 -0 -0 -0 -0 -0 -0 -0 -0 -0 -0 -0 -0 -0 -0 -0 -0 -0 -0 -0 -0 -0 -0 -0 -0 -0 -0 -0
-0 -0 -0 -0 -0 -0 -0 -0 -0 -0 -0 -0 -0 -0 -0 -0 -0 -0 -0 -0 -0 -0 -0 -0 -0 -0 -0 -0 -0 -0 -0 -0 -0 -0 -0 -0 -0 -0 -0 -0 -0 -0 -0
-0 -0 -0 -0 -0 -0 -0 -0 -0 -0 -0 -0 -0 -0 -0 -0 -0 -0 -0 -0 -0 -0 -0 -0 -0 -0 -0 -0 -0 -0 -0 -0 -0 -0 -0 -0 -0 -0 -0 -0 -0 -0 -0
-0 -0 -0 -0 -0 -0 -0 -0 -0 -0 -0 -0 -0 -0 -0 -0 -0 -0 -0 -0 -0 -0 -0 -0 -0 -0 -0 -0 -0 -0 -0 -0 -0 -0 -0 -0 -0 -0 -0 -0 -0 -0 -0
-0 -0 -0 -0 -0 -0 -0 -0 -0 -0 -0 -0 -0 -0 -0 -0 -0 -0 -0 -0 -0 -0 -0 -0 -0 -0 -0 -0 -0 -0 -0 -0 -0 -0 -0 -0 -0 -0 -0 -0 -0 -0 -0
Wind_Speed
40 38 30 39 35 33 30 25 20 16 15 12 9 8 7 10 9 6 13 13 16 16 15 19 18 24 27 27 28 38 37 26 31 31 30 27 30 35 30 29 28 34 32
38 36 38 44 41 34 28 24 14 13 14 12 12 11 7 5 3 4 10 14 14 18 21 21 24 25 25 21 24 28 28 20 28 32 32 33 36 35 35 28 31 30 35
37 35 38 35 43 30 23 15 8 12 23 16 16 15 14 10 7 5 10 20 16 16 17 16 19 20 24 22 27 27 27 22 27 30 34 35 35 33 38 34 33 31 34
31 34 36 30 34 23 15 23 16 12 18 19 21 19 21 18 14 13 11 18 18 17 18 17 19 20 21 19 21 22 25 25 27 31 33 35 35 38 37 39 44 41 42
32 32 33 32 31 30 30 27 24 20 19 23 19 24 22 22 19 20 17 18 19 18 20 19 20 21 21 21 22 24 25 26 29 32 35 37 38 41 42 43 45 46 44
33 33 33 33 30 28 26 28 22 31 24 28 32 27 25 25 25 24 25 21 23 23 22 23 23 25 25 25 26 26 27 27 28 29 32 35 36 38 39 41 43 43 43
27 28 29 29 31 25 25 24 24 26 23 27 29 30 30 29 29 28 26 24 25 26 25 26 27 28 29 28 28 27 27 27 27 28 31 33 34 36 37 39 40 40 41
22 22 19 20 21 18 22 22 21 24 25 24 26 25 28 30 29 28 27 27 27 27 28 29 29 30 31 30 30 29 30 30 31 30 31 33 34 36 36 37 38 40 39
21 21 17 18 23 27 27 26 30 33 31 32 30 30 30 31 32 31 29 28 28 30 30 31 31 31 33 33 31 32 33 33 33 33 33 34 35 35 36 37 39 42 42
20 22 23 24 27 28 28 29 30 32 32 32 32 33 33 32 34 34 33 31 31 31 32 32 34 34 34 35 34 35 36 36 36 36 36 37 37 38 38 38 38 41 43
19 21 22 24 27 29 29 30 31 31 32 32 33 34 35 35 36 36 37 35 34 34 35 37 37 37 37 36 36 36 36 36 37 36 37 39 39 40 41 41 40 40 43
18 20 22 24 27 29 29 30 31 32 33 34 34 34 35 36 38 37 37 37 36 35 36 36 36 37 37 37 37 38 38 37 39 40 40 41 43 44 43 44 42 41 41
18 20 22 24 26 28 29 31 32 32 33 35 36 36 37 36 38 39 39 39 38 37 36 37 37 38 38 38 39 40 40 41 41 42 44 44 44 44 44 43 43 43 43
17 19 21 24 26 28 30 30 31 32 33 35 36 37 37 36 35 37 38 38 39 38 38 38 39 38 38 38 39 40 41 42 42 43 44 44 45 45 45 45 46 46 46
17 20 22 24 26 27 29 30 31 28 31 33 35 36 37 38 37 37 38 37 38 38 39 39 40 42 43 44 44 43 44 44 45 45 45 46 47 47 47 46 46 47 47
18 20 22 24 26 27 28 30 30 30 31 32 34 35 35 35 37 38 39 40 40 39 41 43 44 44 44 45 46 46 46 46 46 46 46 46 47 47 48 47 46 47 49
18 21 22 24 26 28 29 30 32 32 32 33 34 36 37 37 38 38 39 40 41 41 42 43 44 45 44 45 45 46 48 47 46 46 46 45 45 46 47 46 46 46 48
19 21 22 24 27 29 30 31 32 34 35 36 35 36 37 38 38 39 39 38 40 41 41 44 46 46 47 47 48 48 48 47 47 46 46 44 44 44 45 45 44 46 47
20 22 23 25 27 30 31 32 33 34 35 36 37 37 37 38 39 39 39 40 42 44 44 44 44 45 46 45 46 46 46 46 45 45 43 43 42 42 43 43 44 45 46
21 23 24 25 28 30 31 32 34 35 36 37 38 38 39 40 43 43 42 42 42 43 44 44 44 44 45 44 44 44 45 45 44 43 43 41 40 40 40 41 41 42 42
22 24 25 27 28 30 31 32 34 35 36 38 38 38 39 41 42 43 43 42 42 42 42 42 43 42 43 42 42 43 43 42 42 42 41 40 39 39 39 39 39 39 40
23 25 27 28 29 30 32 32 34 35 37 38 39 40 40 40 41 41 41 41 40 39 39 39 40 40 40 41 41 41 40 40 41 41 40 39 38 37 37 37 37 38 38
24 27 27 29 29 30 32 33 35 36 37 39 40 41 41 42 43 43 41 40 39 38 37 37 37 38 38 38 36 36 36 37 38 38 38 37 36 36 36 36 36 36 36
26 28 28 29 30 31 33 34 35 37 38 39 40 41 42 43 43 43 42 40 39 37 35 35 34 35 36 36 35 34 32 33 34 36 35 34 34 35 35 35 34 34 34
26 29 29 30 32 34 35 36 38 38 37 39 40 42 42 42 42 43 42 41 39 36 34 33 31 32 33 33 33 33 31 32 34 35 34 33 33 35 34 33 33 33 33
26 29 30 32 34 35 35 36 37 37 39 40 41 41 42 43 42 42 42 41 40 39 37 33 30 30 30 30 31 30 30 31 33 34 33 32 32 33 32 32 31 30 31
Wind_Direction
351 347 357 25 359 358 355 343 336 325 320 322 321 324 316 271 259 285 319 326 288 286 310 286 295 287 282 287 294 288 278 270 273 279 286 294 295 291 299 299 297 292 295
358 357 1 16 15 12 1 351 339 348 358 1 20 30 34 26 222 255 9 354 326 310 307 302 300 293 286 301 304 295 295 289 281 283 288 293 295 297 296 301 300 299 289
4 4 9 8 21 13 12 14 52 17 24 24 35 44 46 47 52 360 358 14 5 0 343 334 331 302 292 296 306 284 301 299 300 295 291 297 300 307 301 302 300 301 295
1 9 10 6 16 18 38 24 28 25 22 24 28 46 48 47 43 29 14 11 12 9 5 352 346 340 321 310 311 311 309 306 305 303 300 302 304 303 305 302 300 303 301
11 11 13 11 13 19 20 18 22 22 21 31 31 35 37 36 28 25 19 13 5 359 4 359 347 342 339 335 328 325 320 317 312 310 308 307 306 306 304 302 301 300 300
19 17 19 19 16 16 17 21 20 26 25 27 30 30 30 31 28 28 30 19 17 12 2 1 355 351 345 345 352 350 351 342 334 328 320 315 314 312 311 308 304 304 297
8 11 13 14 20 15 15 15 18 21 22 23 24 26 29 28 26 26 25 21 18 12 4 1 359 354 352 350 349 347 346 344 340 332 326 322 319 319 316 314 312 307 302
360 2 359 3 8 9 13 14 14 14 17 16 18 17 21 21 18 16 16 16 14 9 5 2 359 355 352 349 345 342 339 337 334 332 329 324 322 321 321 318 315 313 312
359 359 354 357 7 12 13 11 16 21 18 19 15 14 14 13 13 10 9 10 8 3 0 357 354 350 347 345 341 336 333 330 329 327 327 326 325 324 324 321 317 314 310
359 6 4 7 12 13 11 12 14 18 19 16 14 13 11 9 7 8 7 7 2 359 357 354 352 352 348 345 343 337 331 329 329 327 325 324 325 325 325 323 318 312 310
358 4 4 8 14 15 15 16 15 12 13 11 12 13 12 10 7 7 7 7 2 357 355 353 351 349 346 344 342 338 333 330 328 326 324 323 324 324 323 321 317 313 307
359 2 2 5 12 15 14 13 13 14 12 10 9 8 9 9 7 5 5 6 5 2 357 354 351 348 346 345 342 339 336 333 330 326 323 321 320 319 319 317 316 313 309
355 359 1 4 9 11 10 9 8 9 9 7 6 5 3 5 7 4 3 2 1 1 357 353 350 348 347 345 342 339 337 333 329 327 324 322 320 319 317 316 316 314 311
349 353 356 2 5 7 7 10 10 9 7 5 2 1 0 2 4 2 359 358 356 354 351 349 347 346 345 343 341 340 338 335 332 329 325 324 323 321 318 317 313 311 308
343 345 347 354 359 3 7 6 5 7 4 0 360 359 357 358 357 356 354 353 352 351 348 347 344 343 341 340 339 338 337 335 332 330 327 324 323 322 318 317 315 312 308
342 340 343 349 355 358 360 358 356 358 358 359 357 356 355 353 350 350 349 348 348 347 346 343 341 341 339 338 337 336 335 333 332 330 327 325 323 321 319 318 317 314 309
342 341 344 347 352 353 354 352 350 353 355 355 354 353 352 350 348 347 346 346 346 345 343 341 341 340 339 339 338 336 334 334 333 331 329 326 324 322 320 319 317 315 311
342 343 345 348 350 350 350 348 348 347 346 347 350 350 348 347 347 346 346 346 345 345 344 341 340 339 338 337 337 336 334 333 333 332 331 328 326 323 320 317 317 313 312
338 339 343 346 347 347 346 346 345 344 343 343 344 346 346 345 344 344 344 343 341 341 341 340 340 339 338 337 336 336 335 334 334 332 331 328 325 322 319 319 317 316 314
336 338 342 344 343 344 344 343 342 342 342 341 342 342 342 342 340 340 341 340 339 339 339 338 339 338 338 337 336 335 335 333 333 331 328 326 325 323 321 320 320 318 318
334 337 339 340 340 341 341 341 341 341 340 340 340 341 340 339 338 338 339 339 338 338 337 337 338 337 337 337 335 333 332 331 331 329 327 325 324 322 322 322 321 320 319
333 334 335 336 338 338 339 340 339 339 338 338 339 339 338 338 337 336 336 336 336 337 336 336 336 336 337 336 334 332 331 330 330 329 327 325 323 322 321 321 321 321 320
333 333 333 334 335 336 336 337 337 336 336 337 337 337 337 337 336 334 333 334 334 334 335 335 335 336 337 337 337 333 332 331 330 329 327 325 323 321 321 320 319 319 320
333 333 333 333 334 334 334 334 334 335 335 336 336 336 336 335 335 335 335 332 331 331 333 333 334 333 335 337 337 336 334 332 331 330 328 325 323 321 320 319 318 317 318
331 332 332 332 333 333 332 333 333 334 335 335 335 335 335 336 336 336 337 337 335 332 332 332 332 333 335 336 336 336 336 334 331 330 328 324 321 319 319 318 316 315 316
331 332 334 334 333 333 334 334 336 336 335 336 336 337 337 336 336 336 337 338 338 337 335 333 332 332 333 334 335 335 335 334 332 330 328 325 321 318 317 315 314 314 315